TimeCST,TemperatureF,Dew PointF,Humidity,Sea Level PressureIn,VisibilityMPH,Wind Direction,Wind SpeedMPH,Gust SpeedMPH,PrecipitationIn,Events,Conditions,WindDirDegrees,DateUTC
12:15 AM,44.6,24.8,46,30.04,10.0,SE,3.5,-,N/A,,Clear,140,2013-11-15 06:15:00
12:55 AM,44.6,23.0,43,30.04,10.0,Calm,Calm,-,N/A,,Overcast,0,2013-11-15 06:55:00
1:15 AM,44.6,24.8,46,30.04,10.0,SE,3.5,-,N/A,,Overcast,140,2013-11-15 07:15:00
1:35 AM,44.6,24.8,46,30.04,10.0,SE,3.5,-,N/A,,Partly Cloudy,140,2013-11-15 07:35:00
1:55 AM,44.6,24.8,46,30.04,10.0,SE,3.5,-,N/A,,Clear,140,2013-11-15 07:55:00
2:15 AM,44.6,24.8,46,30.04,10.0,SE,3.5,-,N/A,,Clear,140,2013-11-15 08:15:00
2:35 AM,44.6,24.8,46,30.04,10.0,Calm,Calm,-,N/A,,Clear,0,2013-11-15 08:35:00
2:55 AM,44.6,24.8,46,30.04,10.0,Calm,Calm,-,N/A,,Clear,0,2013-11-15 08:55:00
3:15 AM,42.8,24.8,49,30.03,10.0,Calm,Calm,-,N/A,,Clear,0,2013-11-15 09:15:00
3:35 AM,44.6,24.8,46,30.03,10.0,Calm,Calm,-,N/A,,Clear,0,2013-11-15 09:35:00
3:55 AM,44.6,24.8,46,30.03,10.0,Calm,Calm,-,N/A,,Mostly Cloudy,0,2013-11-15 09:55:00
4:15 AM,44.6,24.8,46,30.03,10.0,NNW,3.5,-,N/A,,Overcast,330,2013-11-15 10:15:00
4:35 AM,44.6,26.6,49,30.03,10.0,Calm,Calm,-,N/A,,Overcast,0,2013-11-15 10:35:00
4:55 AM,42.8,28.4,57,30.04,9.0,SE,3.5,-,N/A,,Overcast,140,2013-11-15 10:55:00
5:15 AM,42.8,30.2,61,30.04,10.0,SSE,3.5,-,N/A,,Overcast,150,2013-11-15 11:15:00
5:35 AM,44.6,32.0,61,30.04,10.0,SSE,4.6,-,N/A,,Overcast,150,2013-11-15 11:35:00
5:55 AM,42.8,33.8,70,30.04,8.0,Calm,Calm,-,N/A,,Overcast,0,2013-11-15 11:55:00
6:15 AM,41.0,37.4,87,30.04,10.0,ESE,3.5,-,N/A,,Mostly Cloudy,110,2013-11-15 12:15:00
6:35 AM,44.6,33.8,66,30.04,10.0,Calm,Calm,-,N/A,,Overcast,0,2013-11-15 12:35:00
6:55 AM,44.6,35.6,71,30.04,10.0,Calm,Calm,-,N/A,,Overcast,0,2013-11-15 12:55:00
7:15 AM,44.6,33.8,66,30.04,10.0,SE,4.6,-,N/A,,Overcast,130,2013-11-15 13:15:00
7:35 AM,44.6,32.0,61,30.05,10.0,SE,5.8,-,N/A,,Overcast,130,2013-11-15 13:35:00
7:55 AM,44.6,32.0,61,30.05,10.0,SE,5.8,-,N/A,,Overcast,130,2013-11-15 13:55:00
8:15 AM,46.4,32.0,57,30.06,10.0,SE,5.8,-,N/A,,Overcast,130,2013-11-15 14:15:00
8:35 AM,46.4,32.0,57,30.05,10.0,SE,4.6,-,N/A,,Overcast,130,2013-11-15 14:35:00
8:55 AM,46.4,32.0,57,30.05,10.0,SE,3.5,-,N/A,,Overcast,130,2013-11-15 14:55:00
9:15 AM,48.2,32.0,54,30.06,10.0,SE,3.5,-,N/A,,Overcast,140,2013-11-15 15:15:00
9:35 AM,48.2,32.0,54,30.05,10.0,South,6.9,-,N/A,,Overcast,170,2013-11-15 15:35:00
9:55 AM,50.0,32.0,50,30.05,10.0,South,6.9,-,N/A,,Overcast,170,2013-11-15 15:55:00
10:15 AM,51.8,32.0,47,30.05,10.0,South,8.1,-,N/A,,Overcast,180,2013-11-15 16:15:00
10:35 AM,51.8,32.0,47,30.04,10.0,SSE,5.8,-,N/A,,Mostly Cloudy,160,2013-11-15 16:35:00
10:55 AM,51.8,32.0,47,30.04,10.0,South,6.9,-,N/A,,Clear,170,2013-11-15 16:55:00
11:15 AM,53.6,32.0,44,30.03,10.0,South,9.2,-,N/A,,Clear,170,2013-11-15 17:15:00
11:35 AM,55.4,32.0,41,30.01,10.0,South,10.4,-,N/A,,Partly Cloudy,170,2013-11-15 17:35:00
11:55 AM,55.4,32.0,41,30.00,10.0,SSE,10.4,-,N/A,,Partly Cloudy,150,2013-11-15 17:55:00
12:15 PM,55.4,30.2,38,29.99,10.0,South,10.4,-,N/A,,Partly Cloudy,170,2013-11-15 18:15:00
12:35 PM,57.2,28.4,33,29.97,10.0,South,13.8,17.3,N/A,,Scattered Clouds,170,2013-11-15 18:35:00
12:55 PM,57.2,28.4,33,29.96,10.0,South,11.5,-,N/A,,Scattered Clouds,190,2013-11-15 18:55:00
1:15 PM,57.2,32.0,38,29.95,10.0,South,9.2,18.4,N/A,,Mostly Cloudy,180,2013-11-15 19:15:00
1:35 PM,57.2,33.8,41,29.94,10.0,South,11.5,17.3,N/A,,Scattered Clouds,180,2013-11-15 19:35:00
1:55 PM,55.4,35.6,47,29.94,10.0,SSE,15.0,-,N/A,,Mostly Cloudy,160,2013-11-15 19:55:00
2:15 PM,57.2,37.4,48,29.94,10.0,South,17.3,-,N/A,,Mostly Cloudy,180,2013-11-15 20:15:00
2:35 PM,55.4,39.2,54,29.95,10.0,South,12.7,-,N/A,,Mostly Cloudy,180,2013-11-15 20:35:00
2:55 PM,55.4,39.2,54,29.94,10.0,South,10.4,-,N/A,,Overcast,180,2013-11-15 20:55:00
3:15 PM,55.4,39.2,54,29.94,10.0,South,9.2,-,N/A,,Overcast,170,2013-11-15 21:15:00
3:35 PM,55.4,39.2,54,29.93,10.0,South,13.8,-,N/A,,Mostly Cloudy,170,2013-11-15 21:35:00
3:55 PM,55.4,39.2,54,29.94,10.0,South,6.9,-,N/A,,Mostly Cloudy,170,2013-11-15 21:55:00
4:15 PM,55.4,37.4,51,29.94,10.0,SE,6.9,-,N/A,,Mostly Cloudy,140,2013-11-15 22:15:00
4:35 PM,55.4,37.4,51,29.93,10.0,SE,6.9,-,N/A,,Overcast,140,2013-11-15 22:35:00
4:55 PM,53.6,39.2,58,29.93,10.0,SSE,9.2,-,N/A,,Mostly Cloudy,150,2013-11-15 22:55:00
5:15 PM,50.0,41.0,71,29.93,10.0,SSE,8.1,-,N/A,,Mostly Cloudy,160,2013-11-15 23:15:00
5:35 PM,50.0,39.2,66,29.93,10.0,SSE,5.8,-,N/A,,Overcast,150,2013-11-15 23:35:00
5:55 PM,50.0,39.2,66,29.94,10.0,SSE,9.2,-,N/A,,Overcast,150,2013-11-15 23:55:00
6:15 PM,48.2,39.2,71,29.94,10.0,SE,9.2,-,N/A,,Mostly Cloudy,140,2013-11-16 00:15:00
6:35 PM,48.2,41.0,76,29.95,10.0,SSE,10.4,-,N/A,,Partly Cloudy,150,2013-11-16 00:35:00
6:55 PM,48.2,41.0,76,29.95,10.0,SSE,10.4,-,N/A,,Partly Cloudy,150,2013-11-16 00:55:00
7:15 PM,46.4,41.0,81,29.94,10.0,SE,9.2,-,N/A,,Scattered Clouds,140,2013-11-16 01:15:00
7:35 PM,46.4,41.0,81,29.93,10.0,SE,8.1,-,N/A,,Mostly Cloudy,140,2013-11-16 01:35:00
7:55 PM,46.4,41.0,81,29.93,10.0,SE,6.9,-,N/A,,Mostly Cloudy,140,2013-11-16 01:55:00
8:15 PM,48.2,41.0,76,29.93,10.0,SE,9.2,-,N/A,,Mostly Cloudy,140,2013-11-16 02:15:00
8:35 PM,48.2,42.8,82,29.93,10.0,SE,10.4,-,N/A,,Overcast,140,2013-11-16 02:35:00
8:55 PM,48.2,42.8,82,29.93,10.0,SE,9.2,-,N/A,,Overcast,140,2013-11-16 02:55:00
9:15 PM,46.4,42.8,87,29.95,10.0,SSE,6.9,-,N/A,,Mostly Cloudy,150,2013-11-16 03:15:00
9:35 PM,46.4,42.8,87,29.95,10.0,SE,8.1,-,N/A,,Mostly Cloudy,140,2013-11-16 03:35:00
9:55 PM,48.2,42.8,82,29.94,10.0,SE,8.1,-,N/A,,Overcast,140,2013-11-16 03:55:00
10:15 PM,48.2,42.8,82,29.93,10.0,SE,9.2,-,N/A,,Overcast,130,2013-11-16 04:15:00
10:35 PM,48.2,42.8,82,29.93,10.0,SE,10.4,-,N/A,,Overcast,130,2013-11-16 04:35:00
10:55 PM,48.2,44.6,87,29.92,10.0,SE,10.4,-,N/A,,Mostly Cloudy,130,2013-11-16 04:55:00
11:15 PM,48.2,44.6,87,29.92,10.0,SE,8.1,-,N/A,,Mostly Cloudy,130,2013-11-16 05:15:00
11:35 PM,46.4,44.6,93,29.92,10.0,SE,6.9,-,N/A,,Mostly Cloudy,140,2013-11-16 05:35:00
11:55 PM,48.2,44.6,87,29.91,10.0,SE,9.2,-,N/A,,Overcast,130,2013-11-16 05:55:00